FW1093 Weather Reports


time (UTC)temp
C
wind
direction
speed
KPH
gust
KPH
rain 1hr
cm
rain 24hr
cm
rain mn
cm
humidity
%
barometer
mb
20260905231323 20 276 0.0 0.0 0.00 0.00 0.00 90 1011.5
20260905230330 20 276 0.0 0.0 0.00 0.00 0.00 90 1011.6
20260905225318 20 276 0.0 0.0 0.00 0.00 0.00 89 1011.4
20260905224327 21 276 0.0 0.0 0.00 0.00 0.00 88 1011.4
20260905223342 21 276 0.0 0.0 0.00 0.00 0.00 89 1011.4
20260905222337 21 276 0.0 0.0 0.00 0.00 0.00 89 1011.5
20260905221326 21 276 0.0 0.0 0.00 0.00 0.00 88 1011.3
20260905220334 21 276 0.0 0.0 0.00 0.00 0.00 88 1011.2
20260905215344 21 276 0.0 0.0 0.00 0.00 0.00 88 1011.3
20260905214331 21 276 0.0 0.0 0.00 0.00 0.00 88 1011.3
20260905213320 21 276 0.0 0.0 0.00 0.00 0.00 87 1011.1
20260905212327 21 276 0.0 0.0 0.00 0.00 0.00 86 1011.0
20260905211314 22 276 0.0 0.0 0.00 0.00 0.00 86 1011.0
20260905210323 22 276 0.0 0.0 0.00 0.00 0.00 85 1010.9
20260905205313 21 276 0.0 0.0 0.00 0.00 0.00 85 1010.9
20260905204328 21 276 0.0 0.0 0.00 0.00 0.00 85 1010.8
20260905203356 21 276 0.0 0.0 0.00 0.00 0.00 84 1010.7
20260905202322 21 276 0.0 0.0 0.00 0.00 0.00 83 1010.8
20260905201313 22 276 0.0 0.0 0.00 0.00 0.00 80 1010.8
20260905200328 22 276 0.0 0.0 0.00 0.00 0.00 81 1010.6
20260905195317 22 276 0.0 0.0 0.00 0.00 0.00 82 1010.6
20260905194328 22 276 0.0 0.0 0.00 0.00 0.00 81 1010.7
20260905193315 22 276 0.0 0.0 0.00 0.00 0.00 80 1010.6
20260905192330 22 276 0.0 0.0 0.00 0.00 0.00 79 1010.7
20260905191320 22 276 0.0 0.0 0.00 0.00 0.00 78 1010.6
20260905190336 22 276 0.0 0.0 0.00 0.00 0.00 78 1010.7
20260905185324 23 276 0.0 0.0 0.00 0.00 0.00 76 1010.6
20260905184312 22 276 0.0 0.0 0.00 0.00 0.00 75 1010.6
20260905183327 22 276 0.0 0.0 0.00 0.00 0.00 76 1010.7
20260905182336 23 276 0.0 1.6 0.00 0.00 0.00 75 1010.7
20260905181326 23 277 0.0 3.2 0.00 0.00 0.00 73 1010.7
20260905180334 23 284 0.0 4.8 0.00 0.00 0.00 72 1010.8
20260905175320 22 266 0.0 0.0 0.00 0.00 0.00 77 1010.9
20260905174329 22 266 0.0 0.0 0.00 0.00 0.00 76 1010.9
20260905173317 23 266 0.0 4.8 0.00 0.00 0.00 72 1010.9
20260905172324 23 284 0.0 6.4 0.00 0.00 0.00 71 1010.8
20260905171316 23 269 1.6 4.8 0.00 0.00 0.00 69 1010.8
20260905170325 22 281 0.0 3.2 0.00 0.00 0.00 73 1010.9
20260905165332 22 307 0.0 3.2 0.00 0.00 0.00 74 1010.8
20260905164320 22 260 0.0 3.2 0.00 0.00 0.00 68 1010.8
20260905163336 22 278 0.0 1.6 0.00 0.00 0.00 74 1010.9
20260905162344 22 278 0.0 3.2 0.00 0.00 0.00 76 1010.8
20260905161335 22 281 0.0 3.2 0.00 0.00 0.00 70 1010.9
20260905160323 22 33 1.6 3.2 0.00 0.00 0.00 70 1010.8
20260905155312 22 331 0.0 4.8 0.00 0.00 0.00 70 1010.8
20260905154327 22 290 1.6 4.8 0.00 0.00 0.00 72 1010.8
20260905153320 22 338 1.6 6.4 0.00 0.00 0.00 72 1010.8
20260905152337 22 286 0.0 1.6 0.00 0.00 0.00 75 1010.9
20260905151330 21 281 1.6 4.8 0.00 0.00 0.00 76 1011.0
20260905150324 21 356 0.0 4.8 0.00 0.00 0.00 79 1011.0
20260905145316 21 359 1.6 6.4 0.00 0.00 0.00 79 1011.3
20260905144333 21 317 0.0 3.2 0.00 0.00 0.00 82 1011.0
20260905143323 20 2 1.6 3.2 0.00 0.00 0.00 84 1010.9
20260905142316 20 288 0.0 1.6 0.00 0.00 0.00 86 1010.8
20260905141335 19 290 0.0 1.6 0.00 0.00 0.00 86 1011.0
20260905140325 19 349 0.0 1.6 0.00 0.00 0.00 87 1011.1
20260905135316 18 338 0.0 1.6 0.00 0.00 0.00 88 1011.1
20260905134337 18 276 0.0 1.6 0.00 0.00 0.00 90 1011.4
20260905133327 18 281 0.0 3.2 0.00 0.00 0.00 91 1011.4
20260905132315 17 281 0.0 1.6 0.00 0.00 0.00 95 1011.3
20260905131313 17 274 0.0 1.6 0.00 0.00 0.00 97 1011.4
20260905130334 16 271 0.0 1.6 0.00 0.00 0.00 98 1011.3
20260905125330 16 271 0.0 0.0 0.00 0.00 0.00 98 1011.4
20260905124325 16 271 0.0 0.0 0.00 0.00 0.00 98 1011.4
20260905123338 16 271 0.0 0.0 0.00 0.00 0.00 98 1011.4
20260905122335 15 271 0.0 0.0 0.00 0.00 0.00 98 1011.7
20260905121330 15 271 0.0 0.0 0.00 0.00 0.00 98 1011.7
20260905120338 15 271 0.0 0.0 0.00 0.00 0.00 98 1011.6
20260905115329 15 271 0.0 0.0 0.00 0.00 0.00 98 1011.4
20260905114317 14 271 0.0 0.0 0.00 0.00 0.00 97 1011.2
20260905113324 14 271 0.0 0.0 0.00 0.00 0.00 97 1011.1
20260905112331 13 271 0.0 0.0 0.00 0.00 0.00 97 1011.1
20260905111319 13 271 0.0 0.0 0.00 0.00 0.00 97 1010.9
20260905110328 13 271 0.0 0.0 0.00 0.00 0.00 97 1010.8
20260905105317 13 271 0.0 0.0 0.00 0.00 0.00 97 1010.7
20260905104326 13 271 0.0 0.0 0.00 0.00 0.00 97 1010.6
20260905103316 13 271 0.0 0.0 0.00 0.00 0.00 97 1010.6
20260905102323 13 271 0.0 0.0 0.00 0.00 0.00 96 1010.5
20260905101312 13 271 0.0 0.0 0.00 0.00 0.00 96 1010.5
20260905100319 13 271 0.0 0.0 0.00 0.00 0.00 97 1010.5
20260905095327 13 271 0.0 0.0 0.00 0.00 0.00 96 1010.5
20260905094336 13 271 0.0 0.0 0.00 0.00 0.00 96 1010.4
20260905093324 14 271 0.0 0.0 0.00 0.00 0.00 96 1010.4
20260905092314 14 271 0.0 0.0 0.00 0.00 0.00 96 1010.3
20260905091330 14 271 0.0 0.0 0.00 0.00 0.00 96 1010.3
20260905090323 14 271 0.0 0.0 0.00 0.00 0.00 96 1010.3
20260905085312 14 271 0.0 0.0 0.00 0.36 0.00 96 1010.4
20260905084327 15 271 0.0 0.0 0.00 0.36 0.00 96 1010.5
20260905083343 15 271 0.0 0.0 0.00 0.36 0.00 96 1010.5
20260905082328 15 271 0.0 0.0 0.00 0.36 0.00 96 1010.4
20260905081315 15 271 0.0 0.0 0.00 0.36 0.00 96 1010.4
20260905080324 15 271 0.0 0.0 0.00 0.36 0.00 96 1010.5
20260905075314 15 271 0.0 0.0 0.00 1.85 0.00 96 1010.4
20260905074322 15 271 0.0 0.0 0.00 1.85 0.00 96 1010.3
20260905073331 15 271 0.0 0.0 0.00 1.85 0.00 96 1010.3
20260905072317 15 271 0.0 0.0 0.00 1.85 0.00 96 1010.2
20260905071352 15 271 0.0 0.0 0.00 1.85 0.00 96 1010.4
20260905070337 15 271 0.0 0.0 0.00 1.85 0.00 96 1010.5
20260905065326 15 271 0.0 0.0 0.00 1.85 0.00 96 1010.5
20260905064315 15 271 0.0 0.0 0.00 1.85 0.00 96 1010.5
20260905063331 16 271 0.0 0.0 0.00 1.85 0.00 96 1010.5
20260905062320 16 271 0.0 0.0 0.00 1.85 0.00 96 1010.7
20260905061328 16 271 0.0 0.0 0.00 1.85 0.00 96 1010.8
20260905060314 16 271 0.0 0.0 0.00 1.85 0.00 96 1010.9
20260905055330 16 271 0.0 0.0 0.00 1.85 0.00 95 1011.1
20260905054320 16 271 0.0 0.0 0.00 1.85 0.00 95 1011.1
20260905053355 16 271 0.0 0.0 0.00 1.85 0.00 96 1011.1
20260905052338 16 271 0.0 0.0 0.00 1.85 0.00 95 1011.2
20260905051325 16 271 0.0 0.0 0.00 1.85 0.00 96 1011.3
20260905050314 17 271 0.0 0.0 0.00 1.85 0.00 96 1011.4
20260905045328 17 271 0.0 0.0 0.00 1.85 0.00 96 1011.5
20260905044318 16 271 0.0 0.0 0.00 1.85 0.00 96 1011.6
20260905043329 17 271 0.0 0.0 0.00 1.85 0.00 96 1011.6
20260905042316 17 271 0.0 0.0 0.00 1.85 0.00 96 1011.4
20260905041327 17 271 0.0 0.0 0.00 1.85 0.00 96 1011.6
20260905040335 16 271 0.0 0.0 0.00 1.85 0.00 96 1011.6
20260905035336 16 271 0.0 0.0 0.00 1.85 1.85 96 1011.6
20260905034324 16 271 0.0 0.0 0.00 1.85 1.85 95 1011.6
20260905033332 17 271 0.0 0.0 0.00 1.85 1.85 95 1011.6
20260905032348 17 271 0.0 0.0 0.00 1.85 1.85 95 1011.5
20260905031314 17 271 0.0 0.0 0.00 1.85 1.85 96 1011.4
20260905030321 17 271 0.0 0.0 0.00 1.85 1.85 95 1011.6
20260905025329 17 271 0.0 0.0 0.00 1.85 1.85 95 1011.3
20260905024316 17 271 0.0 0.0 0.00 1.85 1.85 95 1011.3
20260905023324 17 271 0.0 0.0 0.00 1.85 1.85 94 1011.2
20260905022316 17 271 0.0 0.0 0.00 1.85 1.85 94 1011.3
20260905021347 17 271 0.0 0.0 0.00 1.85 1.85 94 1011.4
20260905020342 17 271 0.0 0.0 0.00 1.85 1.85 94 1011.3
20260905015314 17 271 0.0 0.0 0.00 1.85 1.85 94 1011.5
20260905014323 17 271 0.0 0.0 0.00 1.85 1.85 93 1011.5
20260905013332 17 271 0.0 0.0 0.00 1.85 1.85 93 1011.4
20260905012320 17 271 0.0 0.0 0.00 1.85 1.85 93 1011.5
20260905011335 18 271 0.0 0.0 0.00 1.85 1.85 92 1011.3
20260905010321 18 271 0.0 0.0 0.00 1.85 1.85 91 1011.4
20260905005328 18 271 0.0 0.0 0.00 1.85 1.85 91 1011.5
20260905004314 18 271 0.0 0.0 0.00 1.85 1.85 91 1011.5
20260905003323 18 271 0.0 0.0 0.00 1.85 1.85 90 1011.5
20260905002312 18 271 0.0 0.0 0.00 1.85 1.85 90 1011.4
20260905001320 19 271 0.0 0.0 0.00 1.85 1.85 90 1011.4
20260905000328 19 271 0.0 0.0 0.00 1.85 1.85 89 1011.2
20260904235318 20 271 0.0 0.0 0.00 1.85 1.85 88 1011.1
20260904234327 20 271 0.0 0.0 0.00 1.85 1.85 87 1011.0
20260904233334 20 271 0.0 0.0 0.00 1.85 1.85 86 1011.0